RASCOM-QAF 1R

Last updated on Mon Oct 20 2025 00:02:46 GMT+0000 (Coordinated Universal Time)

1 36831U 10037B 25292.26783722 .00000017 00000+0 00000+0 0 9995 2 36831 0.0323 107.6548 0006043 109.6214 270.0631 1.00272434 55897
UTC large
Height (km)
Speed (km/s)
/
Latitude / Longitude
Inclination (degrees)
Orbital Period (minutes)
Azimuth
Elevation
Range (km)
Doppler Factor

Next 0 passes for location: London (51.5072 / 0.1276)

Sorry there are no passes over London.